Tracking 30918 objects as of 2-Jul-2025
HD Live streaming from Space Station
objects crossing your sky now

STARLINK-1091

Track STARLINK-1091 now!
10-day predictions
STARLINK-1091 is classified as:


NORAD ID: 44940
Int'l Code: 2020-001AC
Perigee: 403.3 km
Apogee: 412.5 km
Inclination: 53.0 °
Period: 92.6 minutes
Semi major axis: 6778 km
RCS: Unknown
Launch date: January 7, 2020
Source: United States (US)
Launch site: AIR FORCE EASTERN TEST RANGE (AFETR)
Your satellite tracking list
MERIDIAN 1
Track 1 satellite(s)




NASA's NSSDC Master Catalog

Two Line Element Set (TLE):
1 44940U 20001AC  25182.91667824  .00092448  00000-0  13211-2 0  9992
2 44940  53.0495 359.6737 0006844 226.5519  83.6164 15.55481868  5960
Source of the keplerian elements: AFSPC